When you browse on this site, cookies collect data to enhance your experience and personalize the content and advertising you see.
Visit our Privacy Policy to learn more. By continuing to use the site, you agree to this use of cookies and data.
  • In Hungary
  • List of Countries
  • For 7 days
  • Water Temperature
  • Weather Map
  • News
  • Weather Widgets
  • user-avatar
    Login

    Hourly Weather Shauri

    Today, 15 October, Tuesday

    Time Temperature Precipitation Wind Pressure Humidity
    00:00 +10°C° 0 mm 1 mps 643 mmHg 43%
    01:00 +9°C° 0 mm 1 mps 642 mmHg 42%
    02:00 +9°C° 0 mm 1 mps 642 mmHg 40%
    03:00 +9°C° 0 mm 1 mps 642 mmHg 39%
    04:00 +9°C° 0 mm 1 mps 642 mmHg 38%
    05:00 +9°C° 0 mm 1 mps 641 mmHg 37%
    06:00 +9°C° 0 mm 1 mps 641 mmHg 36%
    07:00 +12°C° 0 mm 1 mps 642 mmHg 33%
    08:00 +14°C° 0 mm 1 mps 643 mmHg 31%
    09:00 +18°C° 0 mm 1 mps 644 mmHg 28%
    10:00 +19°C° 0 mm 1 mps 644 mmHg 27%
    11:00 +20°C° 0 mm 1 mps 644 mmHg 26%
    12:00 +21°C° 0 mm 1 mps 644 mmHg 26%
    13:00 +21°C° 0 mm 1 mps 644 mmHg 27%
    14:00 +21°C° 0 mm 1 mps 643 mmHg 29%
    15:00 +21°C° 0 mm 1 mps 643 mmHg 31%
    16:00 +18°C° 0 mm 1 mps 642 mmHg 38%
    17:00 +15°C° 0 mm 1 mps 641 mmHg 46%
    18:00 +13°C° 0 mm 1 mps 640 mmHg 54%
    19:00 +12°C° 0 mm 1 mps 640 mmHg 52%
    20:00 +12°C° 0 mm 1 mps 640 mmHg 51%
    21:00 +12°C° 0 mm 1 mps 640 mmHg 49%
    22:00 +12°C° 0 mm 1 mps 640 mmHg 48%
    23:00 +11°C° 0 mm 1 mps 640 mmHg 46%

    Tomorrow, 16 October, Wednesday

    Time Temperature Precipitation Wind Pressure Humidity
    00:00 +11°C° 0 mm 1 mps 640 mmHg 45%
    01:00 +11°C° 0 mm 1 mps 640 mmHg 43%
    02:00 +11°C° 0 mm 1 mps 640 mmHg 42%
    03:00 +11°C° 0 mm 1 mps 640 mmHg 40%
    04:00 +11°C° 0 mm 1 mps 640 mmHg 39%
    05:00 +10°C° 0 mm 1 mps 639 mmHg 37%
    06:00 +10°C° 0 mm 1 mps 639 mmHg 36%
    07:00 +13°C° 0 mm 1 mps 640 mmHg 33%
    08:00 +15°C° 0 mm 0 mps 642 mmHg 30%
    09:00 +17°C° 0 mm 0 mps 643 mmHg 27%
    10:00 +20°C° 0 mm 1 mps 643 mmHg 27%
    11:00 +21°C° 0 mm 1 mps 643 mmHg 27%
    12:00 +21°C° 0 mm 2 mps 643 mmHg 27%
    13:00 +20°C° 0 mm 2 mps 643 mmHg 29%
    14:00 +20°C° 0 mm 2 mps 642 mmHg 32%
    15:00 +20°C° 0 mm 2 mps 642 mmHg 34%
    16:00 +18°C° 0 mm 1 mps 641 mmHg 42%
    17:00 +15°C° 0 mm 1 mps 641 mmHg 50%
    18:00 +11°C° 0 mm 0 mps 640 mmHg 58%
    19:00 +11°C° 0 mm 0 mps 640 mmHg 59%
    20:00 +10°C° 0 mm 0 mps 640 mmHg 59%
    21:00 +11°C° 0 mm 1 mps 640 mmHg 59%
    22:00 +11°C° 0 mm 1 mps 640 mmHg 58%
    23:00 +10°C° 0 mm 1 mps 640 mmHg 57%

    Day after tomorrow, 17 October, Thursday

    Time Temperature Precipitation Wind Pressure Humidity
    00:00 +10°C° 0 mm 1 mps 640 mmHg 55%
    01:00 +10°C° 0 mm 1 mps 640 mmHg 56%
    02:00 +10°C° 0 mm 1 mps 640 mmHg 56%
    03:00 +9°C° 0 mm 1 mps 640 mmHg 56%
    04:00 +9°C° 0 mm 1 mps 640 mmHg 57%
    05:00 +9°C° 0 mm 1 mps 640 mmHg 57%
    06:00 +9°C° 0 mm 1 mps 640 mmHg 58%
    07:00 +11°C° 0 mm 1 mps 641 mmHg 53%
    08:00 +14°C° 0 mm 1 mps 642 mmHg 47%
    09:00 +16°C° 0 mm 1 mps 643 mmHg 42%
    10:00 +17°C° 0 mm 2 mps 643 mmHg 40%
    11:00 +18°C° 0 mm 2 mps 643 mmHg 37%
    12:00 +19°C° 0 mm 2 mps 643 mmHg 35%
    13:00 +19°C° 0 mm 2 mps 643 mmHg 36%
    14:00 +19°C° 0 mm 2 mps 642 mmHg 37%
    15:00 +19°C° 0 mm 2 mps 642 mmHg 38%
    16:00 +16°C° 0 mm 1 mps 641 mmHg 47%
    17:00 +14°C° 0 mm 1 mps 640 mmHg 56%
    18:00 +12°C° 0 mm 1 mps 640 mmHg 65%
    19:00 +11°C° 0 mm 1 mps 640 mmHg 63%
    20:00 +11°C° 0 mm 1 mps 640 mmHg 62%
    21:00 +10°C° 0 mm 1 mps 639 mmHg 60%
    22:00 +10°C° 0 mm 1 mps 639 mmHg 60%
    23:00 +10°C° 0 mm 1 mps 639 mmHg 60%

    18 October, Friday

    Time Temperature Precipitation Wind Pressure Humidity
    00:00 +10°C° 0 mm 1 mps 639 mmHg 60%
    01:00 +10°C° 0 mm 1 mps 638 mmHg 60%
    02:00 +10°C° 0 mm 1 mps 638 mmHg 60%
    03:00 +10°C° 0 mm 1 mps 638 mmHg 61%
    04:00 +10°C° 0 mm 1 mps 638 mmHg 60%
    05:00 +10°C° 0 mm 1 mps 638 mmHg 58%
    06:00 +10°C° 0 mm 1 mps 638 mmHg 57%
    07:00 +12°C° 0 mm 1 mps 639 mmHg 50%
    08:00 +15°C° 0 mm 1 mps 640 mmHg 42%
    09:00 +17°C° 0 mm 0 mps 641 mmHg 35%
    10:00 +20°C° 0 mm 1 mps 641 mmHg 33%
    11:00 +21°C° 0 mm 1 mps 641 mmHg 31%
    12:00 +22°C° 0 mm 1 mps 641 mmHg 28%
    13:00 +22°C° 0 mm 1 mps 641 mmHg 30%
    14:00 +21°C° 0 mm 1 mps 640 mmHg 32%
    15:00 +21°C° 0 mm 1 mps 640 mmHg 34%
    16:00 +19°C° 0 mm 1 mps 639 mmHg 41%
    17:00 +16°C° 0 mm 1 mps 639 mmHg 48%
    18:00 +13°C° 0 mm 1 mps 638 mmHg 55%
    19:00 +13°C° 0 mm 1 mps 638 mmHg 51%
    20:00 +13°C° 0 mm 1 mps 638 mmHg 48%
    21:00 +12°C° 0 mm 1 mps 638 mmHg 44%
    22:00 +12°C° 0 mm 1 mps 638 mmHg 42%
    23:00 +11°C° 0 mm 1 mps 638 mmHg 41%

    19 October, Saturday

    Time Temperature Precipitation Wind Pressure Humidity
    00:00 +11°C° 0 mm 1 mps 638 mmHg 39%
    01:00 +11°C° 0 mm 1 mps 638 mmHg 40%
    02:00 +11°C° 0 mm 1 mps 638 mmHg 41%
    03:00 +11°C° 0 mm 1 mps 638 mmHg 42%
    04:00 +11°C° 0 mm 1 mps 638 mmHg 42%
    05:00 +11°C° 0 mm 1 mps 638 mmHg 42%
    06:00 +11°C° 0 mm 1 mps 639 mmHg 42%
    07:00 +13°C° 0 mm 1 mps 640 mmHg 40%
    08:00 +15°C° 0 mm 1 mps 641 mmHg 37%
    09:00 +17°C° 0 mm 0 mps 642 mmHg 35%
    10:00 +19°C° 0 mm 1 mps 642 mmHg 35%
    11:00 +20°C° 0 mm 1 mps 642 mmHg 35%
    12:00 +20°C° 0 mm 2 mps 642 mmHg 35%
    13:00 +19°C° 0 mm 2 mps 642 mmHg 38%
    14:00 +19°C° 0 mm 2 mps 641 mmHg 40%
    15:00 +19°C° 0 mm 2 mps 641 mmHg 43%
    16:00 +18°C° 0 mm 1 mps 641 mmHg 52%
    17:00 +15°C° 0 mm 1 mps 640 mmHg 60%
    18:00 +12°C° 0 mm 0 mps 640 mmHg 69%
    19:00 +12°C° 0 mm 1 mps 640 mmHg 71%
    20:00 +12°C° 0 mm 1 mps 640 mmHg 73%
    21:00 +11°C° 0 mm 1 mps 640 mmHg 75%
    22:00 +11°C° 0 mm 1 mps 640 mmHg 78%
    23:00 +11°C° 0 mm 1 mps 640 mmHg 81%

    20 October, Sunday

    Time Temperature Precipitation Wind Pressure Humidity
    00:00 +11°C° 0 mm 1 mps 640 mmHg 84%
    01:00 +11°C° 0 mm 1 mps 640 mmHg 86%
    02:00 +11°C° 0 mm 1 mps 639 mmHg 89%
    03:00 +10°C° 0 mm 1 mps 639 mmHg 91%
    04:00 +11°C° 0.4 mm 1 mps 639 mmHg 90%
    05:00 +11°C° 0.4 mm 1 mps 640 mmHg 90%
    06:00 +11°C° 0.4 mm 1 mps 640 mmHg 90%
    07:00 +12°C° 0.2 mm 1 mps 640 mmHg 87%
    08:00 +13°C° 0.2 mm 1 mps 640 mmHg 84%
    09:00 +13°C° 0.2 mm 1 mps 641 mmHg 81%
    10:00 +14°C° 0.1 mm 1 mps 641 mmHg 81%
    11:00 +14°C° 0.1 mm 1 mps 640 mmHg 80%
    12:00 +14°C° 0.1 mm 1 mps 640 mmHg 80%
    13:00 +15°C° 0.1 mm 1 mps 640 mmHg 77%
    14:00 +15°C° 0.1 mm 1 mps 640 mmHg 75%
    15:00 +15°C° 0.1 mm 1 mps 640 mmHg 73%
    16:00 +14°C° 0 mm 1 mps 640 mmHg 78%
    17:00 +12°C° 0 mm 0 mps 640 mmHg 82%
    18:00 +11°C° 0 mm 0 mps 639 mmHg 87%
    19:00 +10°C° 0 mm 0 mps 640 mmHg 88%
    20:00 +10°C° 0 mm 0 mps 640 mmHg 89%
    21:00 +9°C° 0 mm 0 mps 640 mmHg 89%
    22:00 +9°C° 0 mm 0 mps 640 mmHg 90%
    23:00 +9°C° 0 mm 0 mps 640 mmHg 91%
    Show more